[ hide orbit diagram ]
For accurate long-term ephemerides, please instead use our Horizons system.This orbit viewer was implemented using two-body methods, and hence should not be used for determining accurate long-term trajectories (over several years or decades) or planetary encounter circumstances.
Orbital Elements at Epoch 2459000.5 (2020-May-31.0) TDB
Reference: JPL 17 (heliocentric ecliptic J2000)
Element | Value | Uncertainty (1-sigma) | Units |
e | .03359192234808021 | 6.2571e-08 | |
a | 3.473953365565035 | 5.0157e-08 | au |
q | 3.357256593868123 | 2.326e-07 | au |
i | 11.03559460022833 | 6.2946e-06 | deg |
node | 83.76559338396943 | 3.1327e-05 | deg |
peri | 172.6691335783675 | 0.00010303 | deg |
M | 248.9309501126269 | 0.00010154 | deg |
tp | 2459730.167426634085 (2022-May-30.66742663) | 0.00067282 | TDB |
period | 2365.017742158008 6.48 | 5.1219e-05 1.402e-07 | d yr |
n | .1522187312098178 | 3.2966e-09 | deg/d |
Q | 3.590650137261948 | 5.1842e-08 | au |
|
| | Orbit Determination Parameters
Additional Information
|
[ show covariance matrix ]
Physical Parameter Table
Parameter |
Symbol |
Value |
Units |
Sigma |
Reference |
Notes |
absolute magnitude |
H |
14.8 |
|
n/a |
MPO427128 |
|
diameter |
diameter |
5.910 |
km |
1.115 |
urn:nasa:pds:neowise_diameters_albedos::2.0[mainbelt] (http://adsabs.harvard.edu/abs/2011ApJ...741...68M) |
|
geometric albedo |
albedo |
0.055 |
|
0.014 |
urn:nasa:pds:neowise_diameters_albedos::2.0[mainbelt] (http://adsabs.harvard.edu/abs/2011ApJ...741...68M) |
|
|
185484 (2007 DB85) Discovered 2007-Feb-22 by Charleston at Charleston |
Reference: 20080420/Numbers.arc | Last Updated: 2008-04-23 |
|
[ show close-approach data ]
|